Regional Weather Roundup
Issued by NWS Nashville, TN

Home | Current Version | Previous Version | Text Only | Print | Product List | Glossary On
Versions: 1 2 3 4 5 6 7 8 9 10 11 12 13 14 15 16 17 18 19 20 21 22 23 24 25 26 27 28 29 30 31 32 33 34 35 36 37 38 39 40 41 42 43 44 45 46 47 48 49 50
000
ASUS44 KOHX 061215
RWROHX
MIDDLE TENNESSEE HOURLY WEATHER ROUNDUP
NATIONAL WEATHER SERVICE NASHVILLE TN
700 AM CDT WED MAY 06 2015

NOTE: "FAIR" INDICATES FEW OR NO CLOUDS BELOW 12,000 FEET WITH
NO SIGNIFICANT WEATHER AND/OR OBSTRUCTIONS TO VISIBILITY.

* THESE REPORTS ARE NOT UNDER NWS QUALITY CONTROL AND MAY NOT
  REPORT WEATHER SUCH AS PRECIPITATION AND FOG.


TNZ005>011-023>034-057-059-062>066-078-080-061300
...NORTHERN MIDDLE TENNESSEE...

CITY           SKY/WX    TMP DP  RH WIND       PRES   REMARKS
CLARKSVILLE    CLOUDY    58  56  93 S3        30.19R
CROSSVILLE     PTSUNNY   62  55  77 CALM      30.26R
NASHVILLE      MOSUNNY   61  57  87 CALM      30.21R
ROCKWOOD       SUNNY     60  55  83 CALM      30.25R
SMYRNA         MOSUNNY   61  59  93 CALM      30.22R
SPARTA         MOSUNNY   66  61  82 CALM      30.22R
$$
TNZ056-058-060-061-075>077-079-093>097-061300
...SOUTHERN MIDDLE TENNESSEE...

CITY           SKY/WX    TMP DP  RH WIND       PRES   REMARKS
COLUMBIA       SUNNY     55  55 100 CALM      30.20R
LEWISBURG      SUNNY     54  52  93 CALM      30.21R
MCMINNVILLE    PTSUNNY   61  61 100 CALM      30.23R
SHELBYVILLE    SUNNY     61  59  94 E3        30.22S
TULLAHOMA      SUNNY     57  54  88 CALM      30.24R
WINCHESTER     SUNNY     61  54  77 CALM      30.23R
$$


...KEY TO REMARKS...
VSB - VISIBILITY IN MILES
WCI - WIND CHILL INDEX
HX  - HEAT INDEX




USA.gov is the U.S. government's official web portal to all federal, state and local government web resources and services.